Home   Weather   Virginia Beach   Past weeks

Flag for USA Past Weather in Virginia Beach, Virginia, USA — Yesterday and Last 2 Weeks

Now
75 °F

Overcast.


Feels Like: 75 °F
Forecast: 73 / 89 °F
Wind: 14 mph from Southwest

Location: Virginia Beach - Oceana

Current Time: Apr 29, 2017 at 5:34:45 am

Latest Report: Apr 29, 2017 at 4:56 am


Visibility: 10 mi

Pressure: 30.12 "Hg

Humidity: 82%

Dew Point: 69 °F

Location of Virginia BeachLocation

Past Weather in Virginia Beach — Graph

°F

Virginia Beach Temperature Yesterday

Maximum temperature yesterday: 83 °F (at 6:56 pm)
Minimum temperature yesterday: 70 °F (at 6:56 am)
Average temperature yesterday: 75 °F

High & Low Weather Summary for the Past Weeks

 TemperatureHumidityPressure
High86 °F (Apr 21, 1:56 pm)97% (Apr 24, 9:56 pm)30.41 "Hg (Apr 24, 9:56 pm)
Low44 °F (Apr 14, 4:56 am)28% (Apr 16, 5:56 pm)29.58 "Hg (Apr 25, 8:35 am)
Average65 °F76%30.02 "Hg
* Reported Apr 14 2:56 am — Apr 29 2:56 am, Virginia Beach, Weather by CustomWeather, © 2017

Note: Actual official high and low records may vary slightly from our data, if they occured in-between our weather recording intervals... More about our weather records

Advertising

Virginia Beach Weather History for the Previous 24 Hours

Scroll right to see more
 ConditionsComfort  
Time TempWeatherWind HumidityBarometerVisibility
2:56 am
Sat, Apr 29
75 °FOvercast.12 mph85%30.08 "Hg10 mi
1:56 am75 °FOvercast.14 mph88%30.08 "Hg9 mi
1:26 am74 °FPassing clouds.10 mph91%30.08 "Hg9 mi
12:56 am75 °FPassing clouds.12 mph88%30.09 "Hg9 mi
11:56 pm
Fri, Apr 28
76 °FClear.9 mph85%30.09 "Hg10 mi
10:56 pm76 °FPassing clouds.8 mph85%30.09 "Hg10 mi
9:56 pm77 °FPassing clouds.8 mph82%30.08 "Hg10 mi
8:56 pm79 °FPassing clouds.7 mph74%30.05 "Hg10 mi
7:56 pm80 °FPassing clouds.5 mph67%30.04 "Hg10 mi
6:56 pm83 °FScattered clouds.7 mph61%30.03 "Hg10 mi
5:56 pm81 °FPartly sunny.3 mph69%30.03 "Hg10 mi
4:56 pm79 °FPartly sunny.5 mph72%30.03 "Hg10 mi
3:56 pm80 °FPartly sunny.10 mph71%30.03 "Hg10 mi
2:56 pm78 °FPartly sunny.8 mph74%30.06 "Hg10 mi
1:56 pm78 °FPartly sunny.8 mph74%30.06 "Hg10 mi
1:04 pm80 °FBroken clouds.5 mph71%30.06 "Hg10 mi
11:56 am80 °FPartly sunny.8 mph71%30.06 "Hg10 mi
11:39 am78 °FMostly cloudy.7 mph76%30.06 "Hg10 mi
10:56 am77 °FOvercast.9 mph79%30.07 "Hg10 mi
9:56 am76 °FOvercast.13 mph82%30.06 "Hg10 mi
8:56 am73 °FPartly sunny.7 mph90%30.04 "Hg10 mi
7:56 am71 °FCloudy.6 mph93%30.03 "Hg10 mi
7:41 am70 °FThunderstorms. Fog.3 mph93%30.02 "Hg3 mi
7:33 am70 °FStrong thunderstorms. Fog.No wind90%30.02 "Hg1 mi
7:20 am70 °FThunderstorms. Cloudy.3 mph90%30.01 "Hg10 mi
6:56 am70 °FThunderstorms. Cloudy.6 mph90%30.01 "Hg10 mi
6:27 am71 °FStrong thunderstorms. Fog.15 mph87%30.00 "Hg2 mi
5:56 am71 °FThunderstorms. Overcast.13 mph84%29.97 "Hg10 mi
Weather by CustomWeather, © 2017

See weather overviewHow to use our weather pages